sat.trackr.live / text

‹ back to catalog

STARLINK-34780

NORAD 65074 · 2025-165U

PAYLOAD ACTIVE UNKNOWN

§ Identity

Operator
Country
US
Launch date
2025-07-31
Launch site
AFWTR
Launch vehicle
Mass (kg)
RCS (m²)

Purposes: comms

External: N2YO · Heavens-Above · Gunter

§ Orbital elements

Epoch: 2026-09-20T12:03:27.061920Z

Period
93.91 min
Inclination
97.2857°
Eccentricity
0.0001506
Mean motion
15.33460118 rev/d
Perigee alt
464.5 km
Apogee alt
466.5 km
Semi-major
6,843.6 km
B*
5.5754e-4
RAAN
334.6904°
Arg perigee
80.9752°
Mean anomaly
279.1662°
Rev number
6,412

§ Raw data

STARLINK-347801 65074U 25165U   26263.50239655  .00017976  00000+0  55754-3 0  99932 65074  97.2857 334.6904 0001506  80.9752 279.1662 15.33460118 64122

JSON: /api/v1/satellites/65074 · /tle

For live sub-satellite position, see the globe view (requires WebGL).

§ Visibility from observer

Set your observer location to see the next 7 days of passes ≥ 10°. The values pass through the URL so the page stays shareable.

No JS? Fill the form by hand. The geolocation button needs JavaScript.